Back to catalog

ARIANE 1 DEB

AliveHEO
NORAD 17255·DEBRIS·🇫🇷 France

Launched Jul 2, 1985 from Guiana Space Centre

Loading…

Next Passes (next 24 hours)

TLE

FreshSource: Space-Track

Epoch: Sep 14, 2026, 00:45 UTC

1 17255U 85056C   26257.03171463 -.00000193  00000-0 -43953-3 0  9993
2 17255   8.2361 182.8708 6438023 209.5254  89.5251  3.23420626348507

Track ARIANE 1 DEB in real time with AllMySat

Download on the App Store